Regional Weather Roundup
Issued by NWS

Home | Current Version | Previous Version | Graphics & Text | Print | Product List | Glossary On
Versions: 1 2 3 4 5 6 7 8 9 10 11 12 13 14 15 16 17 18 19 20 21 22 23 24 25 26 27 28 29 30 31 32 33 34 35 36 37 38 39 40 41 42 43 44 45 46 47 48 49 50
000
ASUS43 KTOP 171859
RWRKS

WEATHER ROUNDUP FOR KANSAS
NATIONAL WEATHER SERVICE GOODLAND KS
200 PM CDT THU AUG 17 2017

NOTE:  "FAIR" INDICATES FEW OR NO CLOUDS BELOW 12,000 FEET WITH NO
SIGNIFICANT WEATHER AND/OR OBSTRUCTIONS TO VISIBILITY.

KSZ001>006-013>018-027>032-041>047-172000-
NORTHWEST KANSAS

CITY           SKY/WX    TMP DP  RH WIND       PRES   REMARKS
GOODLAND       SUNNY     82  60  47 S15       30.08F
HAYS           SUNNY     86  53  32 CALM      30.04F
HILL CITY      SUNNY     87  52  29 SW8       30.03F
RUSSELL        SUNNY     87  51  28 N6        30.02F
$$

KSZ061>065-074>080-084>089-172000-
SOUTHWEST KANSAS

CITY           SKY/WX    TMP DP  RH WIND       PRES   REMARKS
DODGE CITY     PTSUNNY   86  53  32 VRB3      30.08F
ELKHART          N/A     84  64  50 S13         N/A
GARDEN CITY    SUNNY     84  57  39 SW9       30.09F
GREAT BEND     PTSUNNY   83  54  36 W5        30.05F
LIBERAL        SUNNY     86  59  39 SE7       30.10F
$$

KSZ066>073-081>083-090>101-172000-
SOUTHEAST KANSAS

CITY           SKY/WX    TMP DP  RH WIND       PRES   REMARKS
CHANUTE        SUNNY     82  63  52 W6        30.01F
COFFEYVILLE    SUNNY     85  67  54 N8        30.01S
HUTCHINSON     SUNNY     85  53  33 W3        30.03F
MEDICINE LODGE   N/A     85  55  35 VRB6      30.04F
NEWTON         SUNNY     82  58  43 VRB7      30.04F
PARSONS        SUNNY     83  65  54 MISG      30.02F
WICHITA INTL   MOSUNNY   85  57  38 CALM      30.03F
WICHITA JABRA  SUNNY     83  57  41 VRB3      30.03F
WINFIELD       SUNNY     83  64  52 W7        30.04F
$$

KSZ007>012-019>026-033>040-048>060-102>105-172000-
NORTHEAST KANSAS

CITY           SKY/WX    TMP DP  RH WIND       PRES   REMARKS
CONCORDIA      SUNNY     84  59  42 VRB5      30.00F
EMPORIA        SUNNY     82  58  43 N7        30.01F
LAWRENCE       SUNNY     82  62  50 W13       29.97F
MANHATTAN      SUNNY     84  57  39 NW8       29.99F
OLATHE IND     SUNNY     80  61  52 NW14      29.99F
OLATHE EXE     SUNNY     79  61  53 NW9       29.98S
SALINA         SUNNY     89  54  30 W7        30.01F
TOPEKA BILLARD SUNNY     84  59  42 NW13G20   29.98S
TOPEKA FORBES  SUNNY     83  62  49 W12       29.99S
$$




USA.gov is the U.S. government's official web portal to all federal, state and local government web resources and services.